Location: Lynch Observatory
(39.9540°N, 75.1861°W)
Time: 07:21:08
(UTC-04:00)

X-37B - Visible Passes

Search period start: 09 August 2022 00:00
Search period end: 19 August 2022 00:00
Orbit: 328 x 343 km, 45.0° (Epoch: 27 July)

Date Brightness Start Highest point End Pass type
(mag) Time Alt. Az. Time Alt. Az. Time Alt. Az.
09 Aug 1.9 04:32:26 22° NW 04:33:37 32° N 04:36:16 10° ENE visible
10 Aug 3.6 03:20:40 15° ENE 03:20:40 15° ENE 03:21:17 10° ENE visible
10 Aug 2.2 04:51:54 11° WNW 04:54:17 28° N 04:56:51 10° ENE visible
11 Aug 2.9 03:40:11 23° NE 03:40:11 23° NE 03:41:42 10° ENE visible
11 Aug 2.0 05:12:19 10° WNW 05:14:58 32° N 05:17:37 10° ENE visible
12 Aug 2.2 03:59:46 27° N 03:59:46 27° N 04:02:17 10° ENE visible
12 Aug 1.2 05:32:45 10° WNW 05:35:35 49° NNE 05:38:24 10° E visible
13 Aug 2.0 04:19:29 25° NNW 04:20:24 31° N 04:23:02 10° ENE visible
14 Aug 1.2 04:39:22 21° NW 04:41:01 49° NNE 04:43:50 10° E visible
15 Aug 3.7 03:28:14 12° ENE 03:28:14 12° ENE 03:28:28 10° ENE visible
15 Aug 0.2 04:59:30 18° WNW 05:01:30 75° SSW 05:04:23 10° ESE visible
16 Aug 3.3 03:48:42 14° E 03:48:42 14° E 03:49:15 10° E visible
16 Aug 1.3 05:20:00 15° W 05:21:50 28° SSW 05:24:22 10° SSE visible
17 Aug 3.2 04:09:34 12° ESE 04:09:34 12° ESE 04:09:49 10° ESE visible
17 Aug 2.6 05:41:18 10° SW 05:42:00 11° SW 05:42:43 10° SSW visible
